User: anonymous   Login
Location: ActonStarParty
(42.4766°N, 71.4538°W)
Time: 07:45:42
(UTC-04:00)
Language:

Cosmos 1300 - Orbit

View from above orbital plane
View from above orbital plane
View from above satellite
View from above satellite

Ground track
Ground track

The orbit data is extracted from the following two-line orbital elements,

1 12785U 81082A   17082.71607634 +.00000867 +00000-0 +42800-4 0  9993
2 12785 082.5056 157.7745 0002112 128.5493 349.5182 15.16605212938657
Epoch (UTC): 23 March 2017 17:11:08
Eccentricity: 0.0002112
inclination: 82.5056°
perigee height: 514 km
apogee height: 517 km
right ascension of ascending node: 157.7745°
argument of perigee: 128.5493°
revolutions per day: 15.16605212
mean anomaly at epoch: 349.5182°
orbit number at epoch: 93865

The dashed part of the orbit path shows where the satellite is in the earth's shadow,  

DLR